Location: *
(44.3925°N, 5.4708°E)
Time: 19:48:54
(UTC+00:00)

Resurs 01 Rocket - Pass Details

Date: 18 September 2019
Orbit: 635 x 644 km, 98.0° (Epoch: 20 October)

Event Time Altitude Azimuth Distance (km) Brightness Sun altitude
Exits shadow 20:43:18 34° 274° (W) 1,061 3.1 -30.5°
Drops below altitude 10° 20:47:00 10° 329° (NNW) 2,045 5.0 -31.0°
Sets 20:49:23 0° 339° (NNW) 2,961 5.9 -31.4°
